Regional Weather Roundup
Issued by NWS

Home | Current Version | Previous Version | Text Only | Print | Product List | Glossary On
Versions: 1 2 3 4 5 6 7 8 9 10 11 12 13 14 15 16 17 18 19 20 21 22 23 24 25 26 27 28 29 30 31 32 33 34 35 36 37 38 39 40 41 42 43 44 45 46 47 48 49 50
000
ASUS43 KLSX 052007
RWRMO

WEATHER SUMMARY FOR MISSOURI
NATIONAL WEATHER SERVICE SPRINGFIELD MO
300 PM CDT SUN JUL 05 2015

NOTE: "FAIR" INDICATES FEW OR NO CLOUDS BELOW 12,000 FEET WITH NO
       SIGNIFICANT WEATHER AND/OR OBSTRUCTIONS TO VISIBILITY.
       CURRENT SKY AND/OR WEATHER CONDITIONS ARE NOT AVAILABLE FOR
       CHILLICOTHE AND FARMINGTON.

MOZ001>031-035>038-043-044-053-054-052100-
...NORTHERN AND WESTERN MISSOURI...

CITY           SKY/WX    TMP DP  RH WIND       PRES   REMARKS
KANSAS CTY INT PTSUNNY   87  75  67 S16       29.93F HX  96
KANSAS C DTWN  PTSUNNY   88  74  63 S12       29.92F HX  96
LEE`S SUMMIT   MOSUNNY   85  73  67 S12       29.96F HX  91
ST JOSEPH      PTSUNNY   88  73  61 S16       29.91F HX  95
CHILLICOTHE      N/A     89  72  56 SE10G17   29.95F HX  96
KIRKSVILLE     CLOUDY    84  67  56 S13       30.00F

$$
MOZ066>068-077>081-088>096-101>105-052100-
...SOUTHWEST MISSOURI...

CITY           SKY/WX    TMP DP  RH WIND       PRES   REMARKS
SPRINGFIELD    PTSUNNY   87  73  62 SE7       30.00F HX  94
JOPLIN         MOSUNNY   89  76  65 S8        29.98F HX 100

$$
MOZ032>034-039>042-045>050-055>058-069>072-052100-
...CENTRAL MISSOURI...

CITY           SKY/WX    TMP DP  RH WIND       PRES   REMARKS
COLUMBIA       PTSUNNY   85  70  60 S9        30.01F
JEFFERSON CITY MOSUNNY   85  70  60 S9        30.00S
ROLLA          MOSUNNY   84  69  60 S8        30.03F
SEDALIA        MOSUNNY   87  73  62 S8        30.00F HX  94
WHITEMAN AFB   MOSUNNY   87  75  67 S13       29.96F HX  96
WARRENSBURG    MOSUNNY   86  72  62 S10G16    29.95F HX  92
OSAGE BEACH    PTSUNNY   86  72  62 SE8       30.01F HX  92

$$
MOZ051-052-059>065-052100-
...EAST CENTRAL MISSOURI...

CITY           SKY/WX    TMP DP  RH WIND       PRES   REMARKS
ST LOUIS INTL  MOSUNNY   88  64  44 SE7       30.04F
SPIRIT OF STL  MOSUNNY   86  68  54 S5        30.02F
ST CHARLES     MOSUNNY   84  69  60 SE8       30.02F

$$
MOZ072>076-082>087-097>100-106>115-052100-
...SOUTH CENTRAL AND SOUTHEAST MISSOURI...

CITY           SKY/WX    TMP DP  RH WIND       PRES   REMARKS
CAPE GIRARDEAU PTSUNNY   83  68  60 CALM      30.06F HAZE
FARMINGTON     SUNNY     82  70  65 S9        30.10F
POPLAR BLUFF   PTSUNNY   83  71  67 E8        30.04F
WEST PLAINS    PTSUNNY   82  69  64 E8        30.07F

$$


USA.gov is the U.S. government's official web portal to all federal, state and local government web resources and services.